Location: High Meadows Obseravatory
(40.7417°N, 111.5713°W)
Time: 23:47:22
(UTC-07:00)

BlueWalker 3 - Pass Details

Date: 30 November 2022
Orbit: 499 x 517 km, 53.2° (Epoch: 02 February)

Event Time Altitude Azimuth Distance (km) Brightness Sun altitude
Rises 17:31:54 0° 278° (W) 2,623 6.7 -6.3°
Reaches altitude 10° 17:34:39 10° 297° (WNW) 1,733 5.3 -6.8°
Maximum altitude 17:37:25 18° 342° (NNW) 1,299 4.0 -7.3°
Drops below altitude 10° 17:40:11 10° 27° (NNE) 1,727 4.2 -7.8°
Enters shadow 17:41:08 - 36° (NE) 2,008 4.5 -7.9°
